Location: Heilwood
(40.6210°N, 78.9150°W)
Time: 00:40:22
(UTC-05:00)

BREEZE-M DEB (TANK) - Visible Passes

Search period start: 28 November 2014 00:00
Search period end: 08 December 2014 00:00
Orbit: 292 x 16021 km, 49.5° (Epoch: 26 November)

Date Brightness Start Highest point End Pass type
(mag) Time Alt. Az. Time Alt. Az. Time Alt. Az.
28 Nov 8.5 16:13:36 10° WNW 18:05:34 83° WSW 19:44:33 10° SSE visible
28 Nov 9.3 22:10:26 10° NW 22:59:34 15° WNW 23:50:45 10° W visible
29 Nov 8.5 16:28:42 10° WNW 18:22:03 79° WSW 19:58:10 10° SSE visible
29 Nov 9.6 22:38:13 10° NW 23:09:06 12° WNW 23:41:28 10° WNW visible
30 Nov 9.3 06:43:22 10° E 06:53:12 13° ENE 07:09:58 10° NE visible
30 Nov 8.5 16:43:51 10° WNW 18:37:31 74° WSW 20:11:33 10° SSE visible
01 Dec 8.5 16:59:02 10° WNW 18:52:06 70° WSW 20:24:41 10° S visible
02 Dec 8.6 17:14:16 10° WNW 19:05:55 65° WSW 20:37:33 10° S visible
03 Dec 8.6 17:29:33 10° NW 19:19:04 60° W 20:50:08 10° S visible
04 Dec 8.6 17:44:55 10° NW 19:31:38 56° W 21:02:23 10° SSW visible
05 Dec 8.7 18:00:21 10° NW 19:43:43 51° W 21:14:14 10° SSW visible
06 Dec 8.8 18:15:55 10° NW 19:55:22 47° W 21:25:38 10° SSW visible
07 Dec 8.8 18:31:38 10° NW 20:06:41 42° W 21:36:26 10° SSW visible
